Regional Weather Roundup
Issued by NWS

Home | Current Version | Previous Version | Text Only | Print | Product List | Glossary Off
Versions: 1 2 3 4 5 6 7 8 9 10 11 12 13 14 15 16 17 18 19 20 21 22 23 24 25 26 27 28 29 30 31 32 33 34 35 36 37 38 39 40 41 42 43 44 45 46 47 48 49 50

356
ASUS43 KOAX 261502
RWRNE

WEATHER ROUNDUP FOR NEBRASKA
NATIONAL WEATHER SERVICE OMAHA NE
1000 AM CDT THU MAY 26 2016

NOTES: SATELLITE DATA IS BEING USED TO AUGMENT CLOUD COVER ABOVE
       12000 FEET.
       "FAIR" INDICATES FEW OR NO CLOUDS BELOW 12,000 FEET WITH NO
       SIGNIFICANT WEATHER AND/OR OBSTRUCTIONS TO VISIBILITY.

  * THESE STATIONS DO NOT REPORT WEATHER SUCH AS RAIN...SNOW OR FOG.

NEZ001>004-019>022-054>056-261600-
NEBRASKA PANHANDLE

CITY           SKY/WX    TMP DP  RH WIND       PRES   REMARKS
SCOTTSBLUFF    MOSUNNY   59  40  49 W6        29.96S
ALLIANCE       CLOUDY    59  45  59 W6        29.93F
CHADRON        SUNNY     61  44  53 W13       29.93S
SIDNEY         CLOUDY    61  45  55 NW8       29.97S
$$

NEZ057>060-069>072-079>082-261600-
SOUTHWEST NEBRASKA

CITY           SKY/WX    TMP DP  RH WIND       PRES   REMARKS
NORTH PLATTE   CLOUDY    58  54  86 NW7       29.98R
IMPERIAL       CLOUDY    65  50  58 N16       29.92F
LEXINGTON      CLOUDY    65  55  70 E6        29.89F
MCCOOK         PTSUNNY   65  54  67 N10       29.89R
$$

NEZ005>010-023>029-035>040-094-261600-
NORTH CENTRAL NEBRASKA

CITY           SKY/WX    TMP DP  RH WIND       PRES   REMARKS
VALENTINE      MOSUNNY   67  51  56 S12       29.92R
BROKEN BOW     CLOUDY    65  53  65 NE5       29.91F
ORD            MOSUNNY   65  55  70 E7        29.89F
$$

NEZ041-046>049-061>064-073>077-083>087-261600-
SOUTH CENTRAL NEBRASKA

CITY           SKY/WX    TMP DP  RH WIND       PRES   REMARKS
GRAND ISLAND   SUNNY     67  56  67 SE9       29.90F
HASTINGS       CLOUDY    67  56  67 E9        29.90R
KEARNEY *      PTSUNNY   66  54  63 E13       29.89F
YORK           SUNNY     68  59  73 E7        29.88F
$$

NEZ011>018-030>034-042>045-261600-
NORTHEAST NEBRASKA

CITY           SKY/WX    TMP DP  RH WIND       PRES   REMARKS
NORFOLK        PTSUNNY   66  53  63 E5        29.90F
ALBION         CLOUDY    65  54  66 E3        29.91R
BLAIR          SUNNY     72  60  65 SE5       29.88S
FREMONT        SUNNY     72  57  58 CALM      29.88F
TEKAMAH        SUNNY     71  59  65 CALM      29.87F
$$

NEZ050>053-065>068-078-088>093-261600-
SOUTHEAST NEBRASKA

CITY           SKY/WX    TMP DP  RH WIND       PRES   REMARKS
LINCOLN        SUNNY     72  61  68 NE7       29.87F
OMAHA EPPLEY   MOSUNNY   72  62  71 CALM      29.87F
FALLS CITY     MOSUNNY   77  66  68 VRB3      29.85F
PLATTSMOUTH    MOSUNNY   75  62  64 SE5       29.87S
$$

NEZ044-045-051>053-067-261600-
OMAHA AREA

CITY           SKY/WX    TMP DP  RH WIND       PRES   REMARKS
OMAHA EPPLEY   MOSUNNY   72  62  71 CALM      29.87F
BLAIR          SUNNY     72  60  65 SE5       29.88S
FREMONT        SUNNY     72  57  58 CALM      29.88F
OFFUTT AFB     SUNNY     73  62  68 E5        29.87S
PLATTSMOUTH    MOSUNNY   75  62  64 SE5       29.87S
$$




USA.gov is the U.S. government's official web portal to all federal, state and local government web resources and services.